Location: Adamstown South Public School
(32.9318°S, 151.7012°E)
Time: 13:36:46
(UTC+00:00)

SMAP - Pass Details

Date: 07 June 2020
Orbit: 682 x 683 km, 98.1° (Epoch: 05 July)

Event Time Altitude Azimuth Distance (km) Brightness Sun altitude
Exits shadow 07:48:30 - 162° (SSE) 2,976 6.0 -11.4°
Reaches altitude 10° 07:50:33 10° 158° (SSE) 2,154 5.2 -11.8°
Maximum altitude 07:55:11 55° 80° (E) 828 3.2 -12.8°
Drops below altitude 10° 07:59:44 10° 2° (N) 2,125 5.8 -13.7°
Sets 08:02:00 0° 357° (N) 3,032 6.7 -14.1°
